Wind_Speed
25 27 30 30 31 30 30 30 28 26 23 22 21 20 20 21 23 26 21 18 20 19 20 22 26 20 22 20 29 32 49 50 41 56 62 62 66 70 75 80 81 85 90 90
26 30 29 31 32 32 34 32 30 28 25 25 23 21 20 20 23 24 18 20 22 22 22 27 26 28 18 21 26 40 48 50 59 65 65 71 73 74 84 87 89 92 93 91
31 30 29 31 32 34 34 35 33 31 26 25 28 22 22 21 20 19 18 24 25 24 30 34 33 31 32 37 45 53 56 62 66 71 77 76 81 81 87 88 93 94 93 89
35 31 31 33 35 35 34 35 34 33 30 29 27 25 24 24 22 18 20 25 22 27 32 35 39 41 39 45 53 58 57 68 69 74 80 87 92 91 90 94 93 91 86 82
40 36 34 33 36 35 38 36 35 36 33 29 29 27 28 24 25 21 31 25 23 27 30 36 40 45 50 51 57 59 66 73 75 81 87 89 87 91 93 92 88 83 80 77
43 41 37 37 37 37 39 37 36 36 34 30 35 26 30 25 21 24 31 32 26 27 33 36 42 48 51 55 61 66 70 74 80 83 85 84 87 89 90 87 81 77 74 72
48 44 44 42 40 38 39 39 37 36 35 37 35 32 32 26 24 29 35 35 37 38 37 40 43 46 50 54 59 64 69 76 79 82 83 85 87 87 82 77 72 70 67 68
50 46 45 47 43 45 41 39 38 39 40 39 37 36 32 29 29 29 32 36 39 41 44 46 47 49 51 55 62 67 73 76 79 82 83 84 83 78 72 70 68 65 67 67
55 51 53 47 46 46 45 40 47 39 40 39 43 43 35 32 32 33 36 39 41 44 46 47 49 51 55 60 66 72 73 77 80 80 81 79 74 69 68 65 65 65 68 68
57 55 56 53 49 47 47 47 47 43 44 44 49 45 42 36 33 37 39 38 43 47 46 48 53 55 59 65 68 71 76 77 77 78 74 71 67 68 64 65 66 68 72 73
60 55 59 56 51 49 52 48 51 50 45 47 50 48 44 41 38 36 40 42 44 48 53 55 58 58 62 62 66 76 77 75 75 71 67 65 64 63 63 65 68 71 75 73
67 65 60 56 59 56 54 51 52 51 51 51 50 50 46 49 41 39 40 44 49 53 60 62 54 51 54 65 80 80 75 74 69 65 64 63 63 62 64 67 71 74 76 71
71 67 66 60 59 58 56 56 57 54 53 52 50 52 52 46 48 44 45 45 49 57 46 49 50 58 69 81 83 77 73 71 64 64 64 64 64 65 67 70 73 77 74 66
79 72 65 63 62 64 61 61 61 57 51 53 51 52 53 51 50 50 46 46 48 33 41 51 53 65 74 85 78 74 70 65 64 64 64 66 66 67 70 73 78 73 69 62
83 75 70 66 69 69 63 57 59 56 55 54 53 54 54 54 55 53 52 51 39 34 46 53 69 78 83 77 71 71 67 63 64 65 66 68 68 68 72 79 79 72 65 59
83 76 76 72 73 74 71 64 57 54 55 55 52 51 49 49 52 56 55 49 51 52 57 65 73 73 72 67 68 66 62 63 64 66 67 69 70 70 74 82 74 69 62 59
79 76 78 73 74 79 74 61 67 65 61 61 59 57 57 56 55 56 56 59 62 61 66 64 62 67 63 64 64 61 61 63 66 67 68 69 70 72 77 80 74 67 62 57
77 74 73 73 78 81 63 68 70 71 67 67 62 60 62 58 58 61 68 66 65 63 61 60 59 58 58 59 59 59 61 64 66 68 69 69 69 73 79 75 69 64 61 53
76 78 74 68 75 70 67 69 75 70 70 69 65 59 59 63 64 64 66 65 63 57 58 54 56 55 56 55 55 59 61 65 67 69 69 71 72 74 79 71 67 64 57 47
82 78 76 68 68 62 62 67 66 65 69 70 62 59 60 60 60 60 61 60 55 53 53 53 54 54 52 53 55 59 62 65 68 69 71 73 73 75 74 69 67 62 53 47
86 80 75 68 60 56 57 60 59 63 63 59 60 60 57 55 54 53 58 53 56 54 52 52 50 50 52 53 57 60 62 65 68 71 72 71 72 75 70 68 64 59 51 43
86 79 72 68 59 48 46 52 53 57 55 60 55 55 29 52 55 52 53 55 53 54 52 50 49 50 52 54 57 60 63 66 69 74 74 71 71 75 69 67 63 55 48 40
81 78 71 67 51 43 40 44 49 47 37 42 49 49 47 51 51 51 53 55 53 51 48 48 49 52 54 56 59 62 64 66 70 75 74 74 72 74 70 67 61 54 48 39
88 80 73 66 51 49 49 39 48 57 52 45 47 49 53 53 54 49 52 50 49 45 47 49 51 53 55 58 62 64 65 67 72 77 75 74 76 72 69 64 57 55 48 42
81 76 71 66 61 59 57 53 53 48 52 47 47 51 53 50 50 50 53 51 46 46 48 50 52 55 58 61 65 65 66 68 73 77 77 73 77 71 66 60 55 51 47 45
73 75 71 60 57 66 66 65 64 63 59 55 51 52 54 52 53 51 50 47 49 49 51 53 55 59 61 64 67 68 66 69 74 78 74 73 75 70 64 58 53 45 42 47
Wind_Direction
246 242 243 245 244 245 249 254 258 259 257 252 245 244 243 248 246 249 257 259 250 256 270 279 279 272 268 245 268 298 313 307 298 300 312 311 314 314 313 313 309 307 306 304
246 245 244 244 247 250 252 256 257 258 257 260 252 249 244 242 248 251 251 251 252 256 253 260 268 285 243 254 287 283 294 297 305 311 310 311 310 307 309 311 308 306 306 306
246 248 245 240 245 251 256 258 259 260 258 258 265 261 258 254 253 247 238 244 257 266 263 272 279 296 258 273 286 277 302 304 308 308 307 306 308 307 308 307 309 308 307 305
246 250 247 244 244 250 253 256 259 262 260 257 265 265 265 270 269 252 247 250 254 267 275 282 289 292 283 285 270 290 294 298 302 303 306 310 310 309 308 309 308 307 307 308
246 250 248 249 251 253 253 254 258 260 263 266 266 260 261 262 268 269 273 259 262 272 279 283 288 291 290 287 287 290 298 304 306 307 310 309 307 308 309 310 309 309 308 309
242 245 245 246 250 251 254 257 258 261 264 266 261 258 260 266 269 259 261 278 276 275 281 285 289 293 293 296 299 301 305 307 305 305 306 307 308 309 309 310 310 311 311 312
244 247 246 245 249 254 255 259 259 263 263 259 263 265 260 269 265 265 269 275 279 285 286 288 290 292 293 295 297 299 300 302 304 306 307 309 310 310 310 311 311 311 314 320
243 245 245 243 245 249 254 256 259 258 259 263 266 264 265 265 268 268 267 270 273 279 284 284 286 289 292 295 297 300 302 305 307 308 310 310 310 311 311 310 311 315 318 318
239 242 245 247 245 251 251 255 253 258 260 263 264 265 267 269 273 274 274 279 283 281 283 287 293 295 298 300 302 304 307 308 309 310 310 312 312 312 310 311 315 317 319 319
241 240 246 246 246 249 252 250 257 257 258 261 265 269 274 273 276 278 281 285 285 287 293 293 294 299 302 303 304 307 309 309 310 311 313 314 313 312 313 317 319 320 319 319
245 243 245 248 248 247 249 252 253 256 258 261 264 270 277 277 276 280 286 286 290 293 290 294 297 301 302 302 306 310 311 310 312 314 315 313 313 315 318 320 320 320 320 320
242 244 245 246 245 246 249 255 253 255 259 260 266 274 275 278 282 283 288 289 290 293 297 295 290 296 302 304 312 312 311 313 315 315 315 317 319 321 322 321 321 320 321 321
243 243 242 247 250 252 251 252 254 253 256 263 267 270 275 277 282 283 284 289 297 308 300 294 287 292 298 307 310 311 313 315 316 316 319 322 321 322 323 322 322 321 320 322
241 240 241 242 249 250 250 250 254 255 260 263 268 270 273 276 278 283 291 292 299 293 257 276 284 298 299 302 309 310 313 315 316 319 322 322 322 322 323 324 324 323 322 322
238 240 241 240 246 249 250 252 257 261 259 263 267 268 272 277 281 283 283 289 296 276 257 276 289 292 295 305 308 310 313 314 318 321 322 322 322 322 323 326 326 324 322 322
238 238 241 239 244 249 248 250 256 260 259 258 261 268 274 278 281 286 290 290 289 288 282 278 287 296 300 305 307 311 312 315 319 321 322 322 322 323 325 328 325 324 323 321
237 236 240 240 244 247 248 252 254 255 259 262 263 265 269 273 280 282 284 284 288 290 291 294 291 297 302 303 307 309 312 316 318 320 321 322 324 324 327 327 325 324 322 319
241 238 240 240 241 245 253 251 254 256 257 262 266 269 271 275 280 284 285 285 288 290 291 292 294 297 299 304 306 309 312 315 316 319 322 324 325 325 327 326 327 326 321 316
241 240 238 240 243 244 246 252 254 260 263 261 264 271 275 276 279 281 283 286 290 292 292 291 293 296 301 303 306 309 312 314 317 321 323 324 326 326 328 327 326 326 324 318
239 238 239 240 243 246 246 250 255 258 260 266 268 268 271 275 279 279 283 288 290 291 291 293 296 300 302 305 308 309 311 314 319 324 325 323 325 326 327 326 326 327 327 322
235 237 238 238 243 243 247 252 255 257 262 265 268 267 265 271 272 280 283 280 290 293 294 295 299 301 303 307 308 309 312 315 320 323 325 324 326 328 326 326 325 325 326 323
231 234 238 236 237 241 251 248 250 252 255 260 262 265 263 258 271 281 275 287 292 292 296 299 301 302 304 306 307 309 310 315 318 323 325 325 326 329 326 326 324 323 323 313
228 230 232 234 230 226 235 234 241 243 242 265 264 263 265 258 267 270 279 285 289 291 294 296 298 300 303 305 306 308 312 314 318 323 324 326 326 329 328 326 323 321 320 309
226 225 227 228 223 220 217 234 241 247 258 259 258 263 266 268 271 279 279 282 285 288 291 295 298 300 302 305 306 310 312 313 318 322 324 325 327 328 328 326 322 321 317 308
225 224 228 227 217 218 215 234 240 247 251 261 267 265 266 270 275 276 276 281 286 288 292 295 297 300 303 305 306 310 310 313 317 321 323 324 328 327 327 326 324 321 317 316
220 220 222 223 224 228 236 244 247 254 255 258 262 264 267 271 272 275 277 282 287 290 292 294 296 300 302 302 303 307 309 311 316 320 323 324 327 326 326 326 327 321 320 317
Height
10882 10883 10884 10888 10890 10893 10896 10899 10901 10903 10906 10908 10910 10912 10913 10912 10913 10911 10913 10909 10909 10909 10907 10906 10904 10903 10903 10898 10894 10890 10894 10893 10883 10872 10861 10853 10844 10836 10829 10820 10811 10806 10796 10786
10876 10875 10879 10881 10883 10886 10888 10892 10894 10897 10900 10901 10904 10907 10908 10908 10907 10905 10909 10904 10904 10905 10905 10902 10900 10898 10895 10892 10890 10889 10884 10881 10873 10861 10857 10848 10839 10827 10817 10808 10797 10789 10778 10765
10868 10869 10873 10875 10876 10878 10880 10883 10886 10889 10894 10896 10895 10900 10901 10902 10901 10903 10906 10902 10900 10901 10896 10890 10887 10884 10884 10882 10880 10877 10873 10867 10858 10850 10845 10838 10827 10819 10808 10795 10783 10771 10759 10745
10860 10864 10866 10868 10869 10871 10873 10875 10878 10880 10885 10888 10891 10893 10894 10894 10894 10896 10899 10898 10899 10894 10889 10886 10882 10878 10878 10875 10873 10868 10862 10856 10848 10842 10831 10817 10806 10795 10790 10780 10769 10757 10741 10728
10850 10857 10859 10860 10861 10864 10864 10868 10869 10871 10875 10880 10881 10886 10887 10890 10888 10891 10883 10892 10894 10890 10886 10881 10877 10872 10870 10869 10865 10860 10851 10838 10831 10823 10810 10807 10797 10784 10773 10762 10748 10736 10724 10713
10843 10846 10851 10851 10853 10854 10855 10859 10861 10863 10867 10872 10868 10877 10880 10883 10886 10886 10878 10880 10886 10887 10883 10879 10872 10865 10859 10853 10848 10843 10835 10826 10823 10818 10809 10797 10785 10772 10757 10743 10731 10718 10706 10698
10830 10837 10840 10842 10845 10847 10848 10850 10854 10856 10858 10857 10862 10867 10872 10878 10881 10878 10874 10874 10873 10873 10874 10871 10867 10862 10858 10853 10847 10842 10836 10827 10818 10806 10794 10781 10767 10755 10741 10729 10718 10706 10693 10681
10823 10829 10828 10831 10836 10837 10841 10844 10846 10847 10847 10850 10853 10857 10866 10871 10870 10871 10872 10871 10869 10866 10863 10860 10859 10857 10853 10847 10840 10833 10825 10814 10801 10789 10777 10766 10754 10741 10729 10716 10705 10694 10681 10670
10810 10818 10816 10823 10827 10828 10832 10838 10831 10840 10840 10842 10840 10844 10856 10863 10864 10864 10863 10861 10860 10857 10855 10852 10848 10844 10841 10834 10826 10816 10808 10797 10787 10775 10764 10752 10739 10728 10717 10705 10693 10681 10670 10658
10799 10805 10807 10812 10816 10821 10823 10825 10825 10831 10831 10833 10829 10836 10842 10852 10856 10854 10854 10854 10848 10843 10841 10839 10836 10831 10827 10820 10813 10803 10796 10785 10775 10762 10750 10737 10725 10713 10703 10691 10679 10668 10656 10645
10784 10795 10795 10799 10808 10810 10810 10816 10816 10818 10824 10823 10822 10825 10828 10838 10842 10847 10844 10841 10836 10831 10827 10826 10822 10816 10811 10805 10802 10793 10783 10772 10761 10747 10736 10725 10715 10703 10690 10679 10668 10656 10644 10631
10771 10774 10784 10792 10791 10798 10800 10803 10807 10810 10811 10813 10814 10815 10820 10818 10829 10835 10836 10827 10824 10819 10812 10812 10807 10802 10795 10792 10786 10779 10769 10757 10746 10734 10723 10711 10701 10690 10680 10668 10657 10644 10631 10618
10753 10763 10771 10778 10783 10788 10791 10790 10791 10797 10800 10804 10807 10806 10804 10812 10814 10820 10823 10819 10814 10808 10792 10788 10789 10789 10781 10775 10771 10764 10753 10742 10732 10722 10710 10699 10690 10680 10669 10657 10645 10631 10616 10604
10729 10745 10759 10770 10767 10766 10775 10778 10778 10785 10794 10794 10798 10796 10793 10799 10801 10802 10806 10807 10807 10800 10791 10780 10776 10776 10769 10764 10757 10748 10740 10730 10720 10710 10701 10690 10679 10669 10658 10646 10632 10617 10604 10593
10713 10730 10741 10752 10750 10751 10761 10769 10770 10776 10782 10783 10784 10787 10786 10786 10786 10789 10794 10798 10799 10795 10786 10776 10768 10764 10758 10753 10745 10735 10726 10718 10709 10700 10690 10679 10669 10658 10646 10633 10617 10604 10593 10583
10699 10721 10722 10734 10738 10736 10745 10758 10760 10764 10766 10771 10774 10774 10780 10778 10774 10770 10775 10781 10784 10786 10781 10768 10761 10752 10746 10740 10733 10724 10716 10707 10699 10690 10680 10669 10658 10647 10633 10619 10605 10593 10582 10572
10688 10706 10706 10726 10726 10718 10727 10754 10748 10747 10752 10755 10763 10766 10768 10772 10769 10764 10766 10768 10770 10770 10764 10757 10751 10741 10736 10729 10722 10714 10706 10698 10689 10680 10671 10659 10648 10635 10622 10608 10594 10582 10571 10561
10677 10689 10690 10708 10700 10702 10741 10732 10729 10731 10740 10740 10750 10753 10761 10762 10759 10753 10749 10754 10754 10757 10753 10746 10738 10733 10727 10719 10713 10705 10697 10689 10680 10670 10660 10649 10637 10624 10611 10596 10583 10571 10560 10550
10663 10665 10676 10683 10687 10708 10714 10715 10710 10723 10723 10728 10739 10748 10744 10745 10746 10746 10736 10734 10740 10740 10736 10733 10728 10722 10716 10710 10703 10696 10688 10680 10671 10661 10650 10639 10627 10612 10599 10585 10573 10562 10549 10539
10641 10648 10656 10668 10677 10695 10700 10694 10705 10710 10706 10710 10730 10738 10733 10733 10730 10729 10724 10727 10728 10729 10728 10722 10715 10709 10705 10698 10692 10685 10678 10670 10660 10651 10640 10628 10617 10603 10589 10575 10563 10552 10541 10532
10619 10631 10642 10656 10665 10680 10687 10687 10695 10692 10698 10703 10709 10715 10724 10722 10719 10719 10718 10716 10714 10713 10711 10707 10702 10697 10693 10687 10682 10675 10668 10659 10650 10640 10630 10618 10606 10593 10578 10566 10555 10544 10535 10527
10603 10619 10629 10641 10652 10668 10670 10674 10676 10679 10684 10692 10700 10699 10701 10705 10707 10708 10706 10704 10701 10699 10695 10691 10689 10686 10683 10678 10672 10665 10657 10648 10640 10630 10619 10607 10595 10583 10569 10557 10545 10537 10528 10521
10586 10605 10617 10625 10642 10652 10655 10659 10661 10668 10675 10681 10684 10690 10694 10693 10695 10699 10699 10696 10694 10691 10685 10683 10680 10677 10673 10667 10661 10654 10646 10638 10629 10620 10608 10597 10584 10572 10558 10545 10535 10527 10520 10513
10566 10587 10598 10612 10633 10639 10645 10648 10654 10657 10670 10670 10672 10674 10679 10681 10685 10687 10688 10686 10684 10681 10678 10674 10671 10667 10663 10657 10649 10642 10635 10627 10618 10608 10598 10587 10574 10561 10549 10537 10526 10517 10511 10504
10555 10580 10592 10605 10619 10621 10630 10635 10640 10650 10655 10661 10664 10664 10666 10671 10675 10676 10676 10675 10674 10671 10668 10665 10660 10657 10651 10645 10638 10632 10624 10616 10608 10598 10588 10576 10564 10552 10541 10530 10519 10509 10501 10495
10544 10565 10576 10593 10611 10620 10622 10625 10629 10639 10647 10652 10654 10655 10655 10659 10661 10663 10664 10663 10661 10660 10658 10655 10650 10645 10640 10633 10627 10620 10613 10604 10597 10588 10578 10566 10555 10543 10532 10522 10512 10502 10495 10487